| time (UTC) | temp F | wind direction | speed knots | gust knots | rain 1hr in | rain 24hr in | rain mn in | humidity % | barometer mb |
| 20260504214557 | 74 | 143 | 3.5 | 7.8 | 0.00 | 0.00 | 0.00 | 37 | 1009.9 |
| 20260504213101 | 76 | 76 | 0.9 | 4.3 | 0.00 | 0.00 | 0.00 | 35 | 1009.9 |
| 20260504211559 | 76 | 76 | 0.9 | 6.1 | 0.00 | 0.00 | 0.00 | 34 | 1009.9 |
| 20260504210101 | 76 | 109 | 0.0 | 3.5 | 0.00 | 0.00 | 0.00 | 34 | 1009.9 |
| 20260504204554 | 76 | 67 | 1.7 | 7.8 | 0.00 | 0.00 | 0.00 | 33 | 1010.0 |
| 20260504203050 | 76 | 101 | 0.9 | 5.2 | 0.00 | 0.00 | 0.00 | 34 | 1010.1 |
| 20260504201549 | 76 | 102 | 0.9 | 5.2 | 0.00 | 0.00 | 0.00 | 34 | 1010.3 |
| 20260504200057 | 76 | 269 | 0.0 | 4.3 | 0.00 | 0.00 | 0.00 | 35 | 1010.5 |
| 20260504194542 | 76 | 102 | 0.0 | 5.2 | 0.00 | 0.00 | 0.00 | 35 | 1010.7 |
| 20260504193044 | 76 | 228 | 1.7 | 4.3 | 0.00 | 0.00 | 0.00 | 35 | 1011.0 |
| 20260504191540 | 75 | 337 | 1.7 | 5.2 | 0.00 | 0.00 | 0.00 | 37 | 1011.2 |
| 20260504190037 | 76 | 93 | 1.7 | 5.2 | 0.00 | 0.00 | 0.00 | 36 | 1011.5 |
| 20260504184538 | 75 | 77 | 0.9 | 4.3 | 0.00 | 0.00 | 0.00 | 36 | 1011.8 |
| 20260504183036 | 75 | 110 | 0.9 | 4.3 | 0.00 | 0.00 | 0.00 | 37 | 1011.9 |
| 20260504181531 | 75 | 27 | 0.0 | 7.8 | 0.00 | 0.00 | 0.00 | 35 | 1012.0 |
| 20260504180028 | 74 | 245 | 0.9 | 4.3 | 0.00 | 0.00 | 0.00 | 34 | 1012.4 |
| 20260504174524 | 75 | 74 | 0.9 | 3.5 | 0.00 | 0.00 | 0.00 | 34 | 1012.5 |
| 20260504173023 | 74 | 108 | 0.9 | 4.3 | 0.00 | 0.00 | 0.00 | 34 | 1012.8 |
| 20260504171521 | 74 | 58 | 0.0 | 5.2 | 0.00 | 0.00 | 0.00 | 37 | 1012.9 |
| 20260504081546 | 50 | 358 | 0.0 | 1.7 | 0.00 | 0.00 | 0.00 | 65 | 1015.9 |
| 20260504050018 | 44 | 106 | 0.0 | 0.0 | 0.00 | 0.00 | 0.00 | 74 | 1016.0 |
| 20260504044518 | 43 | 106 | 0.0 | 0.0 | 0.00 | 0.00 | 0.00 | 75 | 1016.0 |
| 20260504043016 | 43 | 106 | 0.0 | 0.0 | 0.00 | 0.00 | 0.00 | 74 | 1016.1 |
| 20260504041511 | 44 | 106 | 0.0 | 0.0 | 0.00 | 0.00 | 0.00 | 73 | 1016.1 |
| 20260504040008 | 43 | 106 | 0.0 | 0.0 | 0.00 | 0.00 | 0.00 | 73 | 1016.1 |
| 20260504034510 | 44 | 106 | 0.0 | 0.0 | 0.00 | 0.00 | 0.00 | 72 | 1015.9 |
| 20260504033007 | 44 | 106 | 0.0 | 0.0 | 0.00 | 0.00 | 0.00 | 69 | 1015.8 |
| 20260504031511 | 45 | 106 | 0.0 | 1.7 | 0.00 | 0.00 | 0.00 | 67 | 1015.7 |
| 20260504030007 | 45 | 317 | 0.0 | 1.7 | 0.00 | 0.00 | 0.00 | 69 | 1015.4 |
| 20260504024506 | 45 | 317 | 0.0 | 1.7 | 0.00 | 0.00 | 0.00 | 66 | 1015.5 |
| 20260504023008 | 46 | 317 | 0.0 | 1.7 | 0.00 | 0.00 | 0.00 | 66 | 1015.5 |
| 20260504021509 | 46 | 317 | 0.0 | 0.9 | 0.00 | 0.00 | 0.00 | 66 | 1015.4 |
| 20260504020004 | 47 | 317 | 0.0 | 0.0 | 0.00 | 0.00 | 0.00 | 62 | 1015.3 |
| 20260504014504 | 48 | 317 | 0.0 | 0.9 | 0.00 | 0.00 | 0.00 | 61 | 1015.3 |
| 20260504013005 | 49 | 317 | 0.0 | 0.0 | 0.00 | 0.00 | 0.00 | 59 | 1015.3 |
| 20260504011502 | 49 | 317 | 0.0 | 0.0 | 0.00 | 0.00 | 0.00 | 58 | 1015.1 |
| 20260504010003 | 51 | 317 | 0.0 | 0.0 | 0.00 | 0.00 | 0.00 | 54 | 1015.0 |
| 20260504004505 | 52 | 317 | 0.0 | 1.7 | 0.00 | 0.00 | 0.00 | 51 | 1015.0 |
| 20260504003001 | 54 | 317 | 0.0 | 1.7 | 0.00 | 0.00 | 0.00 | 45 | 1014.7 |
| 20260504001503 | 56 | 317 | 0.0 | 1.7 | 0.00 | 0.00 | 0.00 | 41 | 1014.5 |
| 20260504000105 | 58 | 317 | 0.0 | 1.7 | 0.00 | 0.00 | 0.00 | 36 | 1014.5 |
| 20260503234600 | 59 | 318 | 0.0 | 1.7 | 0.00 | 0.00 | 0.00 | 34 | 1014.4 |
| 20260503233109 | 59 | 318 | 0.0 | 1.7 | 0.00 | 0.00 | 0.00 | 34 | 1014.2 |
| 20260503231559 | 61 | 277 | 1.7 | 7.0 | 0.00 | 0.00 | 0.00 | 31 | 1014.2 |
| 20260503230112 | 62 | 3 | 0.9 | 6.1 | 0.00 | 0.00 | 0.00 | 29 | 1014.1 |
| 20260503224602 | 62 | 37 | 0.0 | 7.8 | 0.00 | 0.00 | 0.00 | 30 | 1014.2 |
| 20260503223112 | 62 | 286 | 4.3 | 8.7 | 0.00 | 0.00 | 0.00 | 28 | 1014.3 |
| 20260503221556 | 62 | 328 | 0.0 | 8.7 | 0.00 | 0.00 | 0.00 | 31 | 1014.3 |
| 20260503220055 | 62 | 325 | 0.0 | 8.7 | 0.00 | 0.00 | 0.00 | 31 | 1014.4 |